Location: Northcutt
(34.7304°N, 84.4305°W)
Time: 18:18:22
(UTC+00:00)

SR - Pass Details

Date: 12 October 2022
Orbit: 577 x 874 km, 66.7° (Epoch: 05 December)

Event Time Altitude Azimuth Distance (km) Brightness Sun altitude
Rises 22:15:15 0° 162° (SSE) 3,398 ? 9.5°
Reaches altitude 10° 22:18:31 10° 143° (SE) 2,495 ? 8.9°
Maximum altitude 22:22:11 17° 104° (ESE) 2,040 ? 8.1°
Drops below altitude 10° 22:25:53 10° 65° (ENE) 2,525 ? 7.4°
Sets 22:29:12 0° 46° (NE) 3,457 ? 6.7°
